"Pseudo-MPEC" for CAGL7H2

Created 2024 Apr 22 1:22:06 UT using Find_Orb

Click here for an explanation of pseudo-MPECs

 
 Astrometry: 
     CAGL7H2*1C2024 04 20.22943614 20 26.052-01 13 05.38   ~4K77 19.40GVNEOCPG96
     CAGL7H2 1C2024 04 20.23467414 20 22.049-01 11 23.35   ~4K77 19.05GVNEOCPG96
     CAGL7H2 1C2024 04 20.23991814 20 17.963-01 09 41.08   ~4K77 19.73GVNEOCPG96
     CAGL7H2 mC2024 04 20.33673914 19 02.723-00 39 14.44   ~4K8b 19.84GVNEOCPI52
     CAGL7H2 mC2024 04 20.33694314 19 02.611-00 39 11.34   ~4K8b 18.95GVNEOCPI52
     CAGL7H2 mC2024 04 20.33715914 19 02.417-00 39 06.88   ~4K8b 19.90GVNEOCPI52
     CAGL7H2 mC2024 04 20.33736414 19 02.262-00 39 03.60   ~4K8b 19.35GVNEOCPI52
     CAGL7H2 KC2024 04 20.90611514 15 28.71 +01 44 00.6    ~4KNbx20.2 GXNEOCPI93
     CAGL7H2 KC2024 04 20.92946114 15 16.89 +01 48 57.3    ~4KNb 19.9 GXNEOCPI93
     CAGL7H2 KB2024 04 20#a[:^?j3CNHqy.a.^ko)CUAstrometry$1Lrk6(Hwdb5],IZ4q+gY89
     CAGL7H2 KB2024 04 20Ylv7E!4!!92MefrotS3\iredacted;pBlP0=[xv'Nnrso,tJyaReY89
     CAGL7H2 KC2024 04 20.95442714 15 03.300+01 53 19.90   ~4L07x19.5 GVNEOCPJ95
     CAGL7H2 KB2024 04 20MJAvEN/[qYXc/hZD@W%n%wBu^y7WQ_clickw[!LE6w$Hahkuf1RlY89
     CAGL7H2 KC2024 04 20.96377614 14 58.678+01 55 15.53   ~4L07 20.2 GVNEOCPJ95
     CAGL7H2 KC2024 04 20.98167414 14 49.829+01 58 56.86   ~4L07 19.7 GVNEOCPJ95
     CAGL7H2 0B2024 04 21Z2C-'r,sP8O5nMJoSo_PN.khereyg(dstD+rFlS?SLIk8_O.\2mfM49
     CAGL7H2 0B2024 04 21:UXV.y8srgqX_J87#e:HAR-Jno,ZcrNr**']CTVdKhIC8;4pZN!ZM49
     CAGL7H2 KC2024 04 21.27721914 13 21.520+02 57 12.40   ~4L77       VNEOCPI52
     CAGL7H2 KC2024 04 21.28126614 13 19.580+02 57 55.40   ~4L77 20.12GVNEOCPI52
     CAGL7H2 KC2024 04 21.28328014 13 18.620+02 58 15.80   ~4L77 20.29GVNEOCPI52
     CAGL7H2 KC2024 04 21K)u1=8^l1hvlsF\7K$`o)2\2+^lecO`umSY_!50'c0=[A;*8=4$SH21
     CAGL7H2 KC2024 04 21/kFNUforv5*iBc(`=JZZq[o9vQm4/hsl4G!06+SXH[fyB@Y8nr+DH21
     CAGL7H2 KC2024 04 21r6k`ElN^f_Mj5l-2;PSN,kw$PuPfg61Yexplanation*q5pVbLB;H21
     CAGL7H2 KC2024 04 21l8IX-S16_V3d,.:LO+^.#h%885TiQZ5i]nw6Y3u6_vbTI89a)Z/AH21

Station data:
(G96) Mt. Lemmon Survey  (N32.442729 W110.788720)  US/Arizona.  Observer E.
   J. Christensen. 1.5-m reflector + 10K CCD.
(H21) Astronomical Research Observatory, Westfield  (N39.483054 W87.968270)
   US/Illinois.  Observer R. Holmes. Measurers S. Foglia, L. Buzzi, T.
   Linder, R. Holmes. 0.76-m f/3.0 astrograph + CCD0.81-m f/4.0 astrograph +
   CCD0.61-m f/4.5 astrograph + CCD0.40-m f/5.32 astrograph + CCD.
(I52) Steward Observatory, Mt. Lemmon Station  (N32.442570 W110.788920)
   US/Arizona.  Observers T. A. Pruyne, B. M. Africano, E. J. Christensen, G.
   A. Farneth, D. C. Fuls, A. R. Gibbs, A. D. Grauer, H. Gröller, J. A.
   Johnson, R. A. Kowalski, S. M. Larson, G. J. Leonard, D. Rankin, R. L.
   Seaman, F. C. Shelly, K. W. Wierzchoś. 1.0-m prime focus + CCD.
(I93) St Pardon de Conques  (N44.558670 W0.202960)  France.  Observers F.
   Losse, W. D'Anna. Measurer F. Losse. 0.40-m f/3.7 reflector + CCD.
(J95) Great Shefford  (N51.474969 W1.447003)  UK/England.  Observer P.
   Birtwhistle. 0.41-m f/6.3 Schmidt-Cassegrain + CCD.
(M49) IAS Remote Observatory, Hakos  (S23.236549 E16.361720)  Namibia.
   Observers D. Husar, M. Junius. Measurer D. Husar. 0.25-m f/4.6 reflector +
   CCD.
(Y89) Proxima Centauri Observatory, Valdin  (N42.222443 W6.988110)  Spain.

Orbital elements:  CAGL7H2
   Perihelion 2024 Jan 31.75918 +/- 0.0112 TT = 18:13:13 (JD 2460341.25918)
Epoch 2024 Apr 21.0 TT = JDT 2460421.5   Earth MOID: 0.0023   Ve: 0.0980
M  77.12921808 +/- 0.015            (J2000 ecliptic)             AutoNEOCP
n   0.96122169 +/- 6.33e-5          Peri.  258.18878 +/- 0.0043
a   1.01684246 +/- 4.46e-5          Node   208.97510 +/- 0.00026
e   0.2325812 +/- 0.000107          Incl.    5.71692 +/- 0.0028
P   1.03/374.52d           H 28.64  G  0.15   U  6.3
q 0.78034397 +/- 7.71e-5    Q 1.25334094 +/- 0.000163
21 of 24 observations 2024 Apr. 20-21 (25.9 hr); mean residual 0".39
Residuals in arcseconds: 
240420 G96  .27-  .04+    240420 I93  .48-  .59+    240421 M49  .09+  .08-    
240420 G96  .34+  .38-    240420 Y89  .85-  1.4+    240421 I52  .29-  .22-    
240420 G96  .06-  .33-    240420 Y89( 1.7+  2.0+)   240421 I52  .02-  .47+    
240420 I52  .39-  .57+    240420 J95( .46+  .80+)   240421 I52  .19+  .14-    
240420 I52  .26+  .05-    240420 Y89  .56-  .47+    240421 H21  .09-  .14+    
240420 I52  .18-  .46+    240420 J95  .29+  .16-    240421 H21  .36-  .10+    
240420 I52  .17-  .00     240420 J95  .11+  .22-    240421 H21  .23-  .10+    
240420 I93( .45-  2.1+)   240421 M49  .53+  .04+    240421 H21  .56-  .31-    

Ephemerides (geocentric):
Date (UTC) HH   RA             Dec           delta  r     elong  mag " sig PA
---- --------  ------------   ------------  ------ ------ -----  --- --------
2024 04 22 01  14 10 11.671   +04 51 24.69  .01849 1.0228 162.7 20.9 .194 129
2024 04 22 02  14 10 03.470   +04 56 19.76  .01866 1.0230 162.7 21.0 .208 131
2024 04 22 03  14 09 55.414   +05 01 09.47  .01883 1.0232 162.6 21.0 .223 132
2024 04 22 04  14 09 47.498   +05 05 53.97  .01900 1.0233 162.5 21.0 .238 133
2024 04 22 05  14 09 39.719   +05 10 33.38  .01917 1.0235 162.4 21.0 .253 135
2024 04 22 06  14 09 32.073   +05 15 07.83  .01934 1.0237 162.3 21.0 .268 136
2024 04 22 07  14 09 24.558   +05 19 37.46  .01950 1.0238 162.3 21.1 .283 136
2024 04 22 08  14 09 17.170   +05 24 02.39  .01967 1.0240 162.2 21.1 .298 137
2024 04 22 09  14 09 09.905   +05 28 22.72  .01984 1.0241 162.1 21.1 .313 138
2024 04 22 10  14 09 02.761   +05 32 38.58  .02001 1.0243 162.0 21.1 .328 139
2024 04 22 11  14 08 55.734   +05 36 50.08  .02018 1.0245 162.0 21.1 .343 139
2024 04 22 12  14 08 48.822   +05 40 57.32  .02035 1.0246 161.9 21.2 .357 140
2024 04 22 13  14 08 42.023   +05 45 00.41  .02052 1.0248 161.8 21.2 .372 140
2024 04 22 14  14 08 35.332   +05 48 59.45  .02068 1.0250 161.7 21.2 .387 141
2024 04 22 15  14 08 28.748   +05 52 54.52  .02085 1.0251 161.7 21.2 .402 141
2024 04 22 16  14 08 22.269   +05 56 45.73  .02102 1.0253 161.6 21.2 .417 142
2024 04 22 17  14 08 15.891   +06 00 33.17  .02119 1.0255 161.5 21.3 .431 142
2024 04 22 18  14 08 09.612   +06 04 16.92  .02136 1.0256 161.4 21.3 .446 142
2024 04 22 19  14 08 03.431   +06 07 57.07  .02153 1.0258 161.4 21.3 .460 143
2024 04 22 20  14 07 57.344   +06 11 33.71  .02170 1.0259 161.3 21.3 .475 143
2024 04 22 21  14 07 51.350   +06 15 06.90  .02187 1.0261 161.2 21.3 .489 143
2024 04 22 22  14 07 45.447   +06 18 36.74  .02204 1.0263 161.2 21.4 .504 143
2024 04 22 23  14 07 39.632   +06 22 03.29  .02221 1.0264 161.1 21.4 .518 144
2024 04 23 00  14 07 33.904   +06 25 26.62  .02237 1.0266 161.0 21.4 .532 144
2024 04 23 01  14 07 28.260   +06 28 46.82  .02254 1.0268 161.0 21.4 .546 144
2024 04 23 02  14 07 22.700   +06 32 03.94  .02271 1.0269 160.9 21.4 .560 144
2024 04 23 03  14 07 17.220   +06 35 18.06  .02288 1.0271 160.8 21.5 .574 145
2024 04 23 04  14 07 11.820   +06 38 29.24  .02305 1.0273 160.8 21.5 .588 145
2024 04 23 05  14 07 06.498   +06 41 37.53  .02322 1.0274 160.7 21.5 .601 145
2024 04 23 06  14 07 01.251   +06 44 43.02  .02339 1.0276 160.6 21.5 .615 145
2024 04 23 07  14 06 56.079   +06 47 45.74  .02356 1.0277 160.6 21.5 .628 145
2024 04 23 08  14 06 50.979   +06 50 45.76  .02373 1.0279 160.5 21.5 .642 145
2024 04 23 09  14 06 45.951   +06 53 43.14  .02390 1.0281 160.5 21.6 .655 146
2024 04 23 10  14 06 40.993   +06 56 37.94  .02407 1.0282 160.4 21.6 .668 146
2024 04 23 11  14 06 36.103   +06 59 30.19  .02424 1.0284 160.3 21.6 .682 146
2024 04 23 12  14 06 31.280   +07 02 19.96  .02441 1.0286 160.3 21.6 .695 146
2024 04 23 13  14 06 26.523   +07 05 07.30  .02458 1.0287 160.2 21.6 .708 146
2024 04 23 14  14 06 21.830   +07 07 52.26  .02475 1.0289 160.2 21.7 .720 146
2024 04 23 15  14 06 17.200   +07 10 34.87  .02492 1.0290 160.1 21.7 .733 146
2024 04 23 16  14 06 12.632   +07 13 15.20  .02509 1.0292 160.0 21.7 .746 146
2024 04 23 17  14 06 08.125   +07 15 53.27  .02526 1.0294 160.0 21.7 .758 147
2024 04 23 18  14 06 03.677   +07 18 29.15  .02543 1.0295 159.9 21.7 .771 147
2024 04 23 19  14 05 59.287   +07 21 02.87  .02560 1.0297 159.9 21.7 .783 147
2024 04 23 20  14 05 54.954   +07 23 34.46  .02577 1.0299 159.8 21.8 .796 147
2024 04 23 21  14 05 50.677   +07 26 03.99  .02594 1.0300 159.8 21.8 .808 147
2024 04 23 22  14 05 46.456   +07 28 31.47  .02611 1.0302 159.7 21.8 .820 147
2024 04 23 23  14 05 42.288   +07 30 56.95  .02628 1.0304 159.7 21.8 .832 147
2024 04 24 00  14 05 38.173   +07 33 20.48  .02645 1.0305 159.6 21.8 .844 147